[[{"header":{"parameterUnit":"m.s-1","parameterCategory":1,"la1":30.2991,"la2":30.254,"lo1":-89.0895,"lo2":-89.0444,"dy":0.0017,"dx":0.0017,"nx":28,"ny":28,"refTime":"2025-05-28T09:00:00:Z","depth":0,"parameterNumber":2,"parameterNumberName":"U-component_of_WINDS"},"data":[0,0,0,0,0,0,0,0,0,0,0,0,0,0,0,0,0,0,0,0,0,0,0,0,0,0,0,0,0,0,0,0,0,0,0,0,0,0,0,0,0,0,0,0,0,0,0,0,0,0,0,0,0,0,0,0,0,0,2.1579,2.1578,0,2.1487,2.1486,2.1485,2.1484,2.1485,2.1486,2.1487,2.1396,2.1393,2.1389,0,0,0,0,0,0,0,0,0,0,0,0,0,2.1759,2.1756,2.1579,2.1578,2.1577,2.1487,2.1486,2.1484,2.1484,2.1485,2.1486,2.1488,2.1397,2.1393,2.1389,0,0,0,0,0,0,0,0,0,0,0,0,0,2.1675,2.1755,2.1579,2.1565,2.1563,2.1487,2.1486,2.1484,2.1483,2.1485,2.1487,2.1488,2.1399,2.1394,2.1388,2.1321,0,0,2.1372,2.137,0,0,0,0,0,0,0,0,2.168,2.1669,2.1569,2.1566,2.1564,2.1498,2.1516,2.1429,2.1483,2.1514,2.1487,2.1489,2.1429,2.1421,2.14,2.1317,2.1313,2.1372,2.1369,2.1366,2.1365,0,0,0,0,0,0,0,2.1686,2.1673,2.1543,2.1567,2.1564,2.1565,2.1555,2.1499,2.1463,2.1511,2.1511,2.15,2.1428,2.1405,2.1398,2.1311,2.1372,2.1367,2.1364,2.1362,2.1168,2.1166,0,0,0,0,0,0,2.1694,2.1678,2.1546,2.154,2.1627,2.1561,2.155,2.1518,2.1463,2.1457,2.1498,2.15,2.1414,2.1404,2.1395,2.1311,2.1366,2.1362,2.1358,2.117,2.1168,2.1166,0,0,0,0,0,0,2.1698,2.1682,2.1549,2.1609,2.1592,2.1556,2.152,2.1515,2.1492,2.1454,2.1448,2.1482,2.1415,2.1402,2.1339,2.1308,2.1359,2.1354,2.1173,2.1169,2.1167,2.1144,0,0,0,0,0,0,2.1703,2.1684,2.1656,2.1608,2.1589,2.1493,2.1518,2.1512,2.1483,2.1484,2.1436,2.143,2.1415,2.1347,2.1334,2.1302,2.135,2.1175,2.1171,2.1168,2.1147,2.1141,2.1135,0,0,0,0,0,2.171,2.1654,2.1655,2.1639,2.1553,2.1491,2.148,2.1463,2.148,2.1453,2.1429,2.1432,2.1315,2.134,2.1326,2.1292,2.1177,2.1172,2.1168,2.115,2.1142,2.1135,0,0,0,0,0,0,2.1701,2.1648,2.1648,2.1575,2.1537,2.1491,2.1456,2.1455,2.1413,2.1416,2.1398,2.1387,2.1324,2.1302,2.1332,2.1224,2.1248,2.124,2.124,2.1232,2.1226,2.1231,2.1346,0,0,0,0,0,2.169,2.1643,2.16,2.154,2.1521,2.1492,2.1465,2.1455,2.1416,2.14,2.1371,2.1334,2.1289,2.126,2.1216,2.1146,2.1135,2.1116,2.1109,2.1104,2.1097,2.1058,2.1049,2.1151,2.1151,2.1151,0,0,2.1668,2.1633,2.1605,2.1537,2.1507,2.146,2.1479,2.1428,2.1393,2.1393,2.133,2.1308,2.1266,2.1199,2.1168,2.1179,2.1067,2.1099,2.1095,2.109,2.1053,2.1043,2.1034,2.1148,2.1148,2.1149,0,0,2.1602,2.1572,2.1518,2.1488,2.1442,2.1423,2.1411,2.1365,2.1349,2.1287,2.1286,2.1246,2.1168,2.1138,2.1113,2.1039,2.104,2.1026,2.0992,2.0954,2.0946,2.0939,2.0911,2.0902,2.1019,2.1019,2.1019,0,2.158,2.1507,2.1491,2.1439,2.141,2.1408,2.1354,2.1326,2.1269,2.1249,2.1263,2.1166,2.1138,2.1063,2.1045,2.1025,2.101,2.1029,2.0948,2.0941,2.0934,2.0907,2.0897,2.1017,2.1018,2.1018,2.1018,0,2.1482,2.1432,2.1395,2.1338,2.1305,2.1253,2.123,2.1199,2.1193,2.1173,2.111,2.1077,2.1026,2.1009,2.1003,2.0933,2.0941,2.0952,2.0975,2.0923,2.0897,2.0887,2.1015,2.1016,2.1016,2.1017,0,0,2.1405,2.1341,2.1328,2.1302,2.1252,2.1214,2.1163,2.1113,2.1086,2.1048,2.1004,2.094,2.095,2.0921,2.0913,2.088,2.0822,2.0894,2.0893,2.088,2.0743,2.0733,2.0722,2.0824,2.0822,2.0821,2.0746,0,2.1333,2.1239,2.1224,2.1142,2.1095,2.1095,2.105,2.1016,2.0997,2.0957,2.0937,2.0891,2.0908,2.0891,2.0858,2.0836,2.0794,2.0842,2.0783,2.0781,2.079,2.0709,2.0698,2.0629,2.0736,2.0734,2.0733,0,2.1234,2.1192,2.1105,2.1063,2.1043,2.1002,2.0956,2.0917,2.0879,2.0868,2.0837,2.0832,2.0781,2.0809,2.0738,2.077,2.0747,2.0732,2.0729,2.0721,2.0752,2.0696,2.0607,2.0595,2.0718,2.0719,2.072,0,2.1184,2.1107,2.1044,2.1023,2.0972,2.0944,2.0922,2.0885,2.0857,2.0817,2.0798,2.0754,2.0729,2.0695,2.068,2.0702,2.0609,2.0636,2.0598,2.0599,2.0576,2.0577,2.0479,2.0565,2.0566,2.0566,2.0566,0,2.1103,2.1049,2.1021,2.0982,2.0923,2.0908,2.085,2.083,2.0798,2.0756,2.0755,2.0716,2.0699,2.0659,2.0647,2.0589,2.0579,2.0569,2.0566,2.0567,2.0568,2.0549,2.0552,2.0563,2.0564,2.0564,2.0565,0,2.1035,2.1014,2.0946,2.0904,2.0892,2.085,2.0815,2.0779,2.0762,2.0709,2.0696,2.067,2.0622,2.0604,2.0546,2.0539,2.0472,2.0474,2.0483,2.0482,2.0444,2.0447,2.0329,2.0312,2.0411,2.041,2.041,0,2.0983,2.0942,2.0895,2.0867,2.0843,2.0798,2.0768,2.0753,2.0723,2.0678,2.0647,2.0599,2.056,2.0484,2.046,2.0417,2.0416,2.0378,2.041,2.0412,2.0413,2.0415,2.041,2.0371,2.037,2.0369,2.0368,0,2.0892,2.0884,2.0841,2.0794,2.0759,2.0722,2.0686,2.0663,2.0643,2.061,2.056,2.053,2.0471,2.0423,2.0379,2.0358,2.0359,2.0359,2.0348,2.0347,2.0354,2.0348,2.0465,2.0361,2.0362,2.0362,2.0363,2.0363,2.0829,2.0792,2.0754,2.0706,2.0678,2.0644,2.0608,2.0587,2.0545,2.0494,2.0489,2.0436,2.0401,2.0341,2.0319,2.0278,2.0288,2.0272,2.0268,2.0263,2.026,2.0363,2.027,2.0271,2.0271,2.0271,2.0271,0,2.0737,2.0712,2.0669,2.0618,2.0581,2.0586,2.0548,2.0516,2.0469,2.0436,2.0397,2.0341,2.0296,2.027,2.0225,2.0197,2.0197,2.0186,2.0186,2.0182,2.0254,2.0267,2.0187,2.0187,2.0187,2.0187,2.0187,2.0187,2.0684,2.0621,2.0609,2.0534,2.0511,2.0457,2.0434,2.0404,2.0378,2.0315,2.0277,2.026,2.023,2.0183,2.0143,2.0136,2.0119,2.0106,2.0101,2.0168,2.0177,2.0185,2.0197,2.0103,2.0103,2.0032,2.0031,2.003]},{"header":{"parameterUnit":"m.s-1","parameterCategory":1,"la1":30.2991,"la2":30.254,"lo1":-89.0895,"lo2":-89.0444,"dy":0.0017,"dx":0.0017,"nx":28,"ny":28,"refTime":"2025-05-28T09:00:00:Z","depth":0,"parameterNumber":3,"parameterNumberName":"V-component_of_WINDS"},"data":[0,0,0,0,0,0,0,0,0,0,0,0,0,0,0,0,0,0,0,0,0,0,0,0,0,0,0,0,0,0,0,0,0,0,0,0,0,0,0,0,0,0,0,0,0,0,0,0,0,0,0,0,0,0,0,0,0,0,3.3533,3.3537,0,3.387,3.3874,3.3878,3.397,3.3968,3.3966,3.3964,3.4307,3.4318,3.4329,0,0,0,0,0,0,0,0,0,0,0,0,0,3.2966,3.2976,3.3533,3.3537,3.3541,3.3869,3.3874,3.3879,3.397,3.3968,3.3965,3.3963,3.4304,3.4317,3.433,0,0,0,0,0,0,0,0,0,0,0,0,0,3.3248,3.2979,3.3532,3.3627,3.3638,3.3869,3.3874,3.388,3.3971,3.3968,3.3965,3.3962,3.43,3.4316,3.4332,3.4491,0,0,3.4382,3.4389,0,0,0,0,0,0,0,0,3.3232,3.3269,3.3609,3.3621,3.3634,3.3875,3.38,3.4085,3.3971,3.3845,3.3964,3.3961,3.4166,3.4193,3.4263,3.4508,3.4522,3.4383,3.4393,3.44,3.4405,0,0,0,0,0,0,0,3.3213,3.3255,3.3666,3.3613,3.3629,3.3651,3.3688,3.3855,3.4017,3.3855,3.3863,3.3902,3.4172,3.4247,3.4271,3.4527,3.4383,3.4398,3.4408,3.4414,3.4922,3.4925,0,0,0,0,0,0,3.3177,3.3238,3.3656,3.3676,3.3422,3.3664,3.3705,3.3801,3.4016,3.4046,3.3904,3.3905,3.422,3.4252,3.4284,3.4488,3.44,3.4416,3.4425,3.4918,3.4923,3.4927,0,0,0,0,0,0,3.3165,3.3213,3.3642,3.346,3.3516,3.3677,3.3783,3.3809,3.3884,3.4052,3.4082,3.395,3.4219,3.4261,3.444,3.4501,3.4423,3.4438,3.4914,3.492,3.4925,3.4896,0,0,0,0,0,0,3.3148,3.3208,3.3272,3.346,3.3525,3.3793,3.3787,3.3817,3.3912,3.3916,3.4104,3.4132,3.422,3.4415,3.4456,3.4523,3.4451,3.4909,3.4917,3.4923,3.4892,3.49,3.4906,0,0,0,0,0,3.3127,3.3249,3.3274,3.3324,3.3608,3.3797,3.3834,3.3933,3.3916,3.3981,3.4089,3.4126,3.4486,3.4432,3.448,3.4552,3.4906,3.4915,3.4922,3.4889,3.4898,3.4906,0,0,0,0,0,0,3.3063,3.3276,3.3306,3.3493,3.3626,3.3812,3.3897,3.3939,3.408,3.4078,3.4194,3.4235,3.4407,3.4496,3.4433,3.4718,3.4697,3.4715,3.4655,3.4665,3.4672,3.465,3.4464,0,0,0,0,0,3.3071,3.3207,3.3385,3.3532,3.3598,3.3735,3.3821,3.3886,3.4028,3.4085,3.4207,3.4343,3.4487,3.458,3.4722,3.4903,3.4947,3.4976,3.4983,3.4988,3.5004,3.5109,3.5125,3.4954,3.4953,3.4953,0,0,3.3088,3.3221,3.33,3.3523,3.3634,3.3773,3.3782,3.3928,3.4033,3.4107,3.4286,3.4378,3.4538,3.472,3.4806,3.48,3.506,3.4998,3.5001,3.5015,3.5119,3.5135,3.5149,3.4959,3.4958,3.4957,0,0,3.3192,3.3305,3.3442,3.3553,3.3721,3.3811,3.3843,3.4023,3.4088,3.4268,3.4328,3.4452,3.4697,3.481,3.4898,3.5042,3.5082,3.5084,3.5123,3.5224,3.5237,3.525,3.5305,3.5323,3.5098,3.5098,3.5098,0,3.3193,3.3406,3.3507,3.3652,3.3748,3.3821,3.3961,3.4063,3.4267,3.4333,3.4321,3.4632,3.4744,3.4955,3.4989,3.5057,3.5099,3.5067,3.5227,3.5241,3.5254,3.5308,3.5328,3.5098,3.5098,3.5098,3.5098,0,3.3401,3.3546,3.3636,3.3835,3.3941,3.4081,3.4203,3.4298,3.4352,3.4443,3.4625,3.4761,3.4934,3.4986,3.504,3.5205,3.5196,3.5204,3.5186,3.5269,3.5322,3.5343,3.5097,3.5097,3.5097,3.5097,0,0,3.3479,3.3729,3.3762,3.3853,3.4042,3.4157,3.4299,3.4468,3.4549,3.4686,3.4811,3.5015,3.5025,3.5125,3.5191,3.5279,3.5388,3.5277,3.5283,3.5297,3.5582,3.5579,3.5601,3.5413,3.5417,3.542,3.557,0,3.3611,3.3873,3.3967,3.4182,3.432,3.4389,3.4514,3.4643,3.473,3.4859,3.4954,3.51,3.5098,3.516,3.5249,3.5356,3.5448,3.5345,3.5533,3.5538,3.5497,3.5628,3.5626,3.5761,3.5591,3.5594,3.5597,0,3.3802,3.3944,3.4173,3.4346,3.4407,3.4518,3.4681,3.4802,3.4949,3.5006,3.5118,3.5177,3.533,3.5296,3.5509,3.5437,3.5518,3.5581,3.5588,3.5615,3.5577,3.5663,3.5806,3.5828,3.563,3.5627,3.5625,0,3.3843,3.4089,3.426,3.4335,3.454,3.4617,3.4705,3.4849,3.4945,3.5085,3.5149,3.5303,3.539,3.5508,3.5608,3.5574,3.5812,3.5787,3.5866,3.5864,3.5919,3.5915,3.6082,3.596,3.596,3.5959,3.5959,0,3.3984,3.4123,3.4281,3.4387,3.4544,3.4648,3.4801,3.4893,3.502,3.5144,3.521,3.5325,3.5447,3.5577,3.5655,3.5821,3.5858,3.591,3.593,3.5908,3.5902,3.5967,3.5963,3.5965,3.5964,3.5963,3.5962,0,3.4059,3.417,3.4362,3.4539,3.4587,3.4695,3.4847,3.4951,3.5039,3.5196,3.5238,3.5378,3.5534,3.5644,3.5844,3.5897,3.6077,3.6093,3.6029,3.604,3.6115,3.6109,3.6335,3.6372,3.6219,3.622,3.6221,0,3.4146,3.4255,3.4444,3.4532,3.4621,3.4762,3.486,3.4965,3.5064,3.5239,3.5323,3.5484,3.5619,3.5866,3.5985,3.6138,3.6163,3.6231,3.6186,3.6161,3.617,3.6165,3.6178,3.624,3.6241,3.6242,3.6242,0,3.4288,3.4338,3.4477,3.4636,3.4752,3.4881,3.5011,3.5079,3.5207,3.5314,3.5476,3.5581,3.5786,3.5946,3.6111,3.6201,3.6245,3.6254,3.6282,3.6264,3.6224,3.6252,3.6054,3.625,3.625,3.6249,3.6249,3.6248,3.4376,3.4477,3.4627,3.478,3.4889,3.5009,3.5116,3.5218,3.5355,3.5532,3.5584,3.5752,3.5895,3.6122,3.6213,3.6346,3.6342,3.638,3.6392,3.6401,3.6403,3.6197,3.6376,3.6376,3.6375,3.6375,3.6375,0,3.4527,3.4626,3.4766,3.4947,3.5067,3.5095,3.524,3.5339,3.5487,3.5617,3.5748,3.5934,3.6089,3.6218,3.6378,3.646,3.6484,3.6499,3.6497,3.6518,3.6396,3.6359,3.6477,3.6477,3.6477,3.6477,3.6477,3.6477,3.4621,3.4794,3.4861,3.5088,3.5186,3.5353,3.5434,3.5545,3.565,3.5855,3.5984,3.6067,3.6197,3.6367,3.651,3.6544,3.6602,3.6614,3.6653,3.6537,3.6526,3.6515,3.6481,3.6624,3.6624,3.6765,3.6766,3.6767]}]]